Location: Dana
(41.8364°N, 106.7042°W)
Time: 02:12:28
(UTC+00:00)

Altair - Pass Details

Date: 15 May 2026
Orbit: 1501 x 1682 km, 47.2° (Epoch: 6 June)

Event Time Altitude Azimuth Distance (km) Brightness Sun altitude
Rises 18:59:34 0° 297° (WNW) 4,939 10.0 67.2°
Reaches altitude 10° 19:02:56 10° 291° (WNW) 3,947 9.7 67.2°
Maximum altitude 19:12:14 43° 225° (SW) 2,202 9.5 67.1°
Drops below altitude 10° 19:21:22 10° 158° (SSE) 3,858 10.1 66.9°
Sets 19:24:38 0° 151° (SSE) 4,818 10.3 66.7°
